Regional Weather Roundup
Issued by NWS Midland/Odessa, TX

Skip options and go directly to product.
Home | Oldest Version | Previous Version | Current Version | All | Text Only | Save Text | Print | Product List | Glossary Off

Skip product version selection by date and time.   

249
ASUS44 KMAF 030610
RWRMAF
MIDLAND AREA WEATHER ROUNDUP
NATIONAL WEATHER SERVICE MIDLAND TX
100 AM CDT TUE MAY 03 2016

...IN SOUTHWEST TEXAS AND SOUTHEAST NEW MEXICO...

CITY           SKY/WX    TMP DP  RH WIND       PRES   REMARKS
ALPINE         CLEAR     46  33  59 W3        30.23S
ANDREWS        FAIR      51  34  53 S6        30.15S
ARTESIA        CLEAR     52  32  46 SW10      30.14S
BIG SPRING     CLEAR     51  38  61 SE7       30.16S
CARLSBAD       CLEAR     49  31  49 SW3       30.13S
DRYDEN           N/A     56  41  57 NE7       30.11S
FORT STOCKTON  CLEAR     54  38  54 S8        30.14S
GUAD PASS      CLEAR     50  32  50 NE18      30.19F
HOBBS          CLEAR     48  32  53 CALM      30.16R
MARFA          CLEAR     42  32  67 N7        30.20S WCI  38
MIDLAND AIRPK  CLEAR     57  42  56 SE6       30.15R
MIDLAND INTL   CLEAR     54  41  61 SE3       30.14R
ODESSA         CLEAR     56  40  55 SE7       30.15R
PECOS          CLEAR     54  34  46 SW3       30.13R
PRESIDIO       FAIR      64  40  40 MISG      30.10S
SEMINOLE       CLEAR     50  35  55 S3        30.16R
SNYDER           N/A     51  40  64 E6        30.14F
WINK           CLEAR     53  35  50 E7        30.12S
$$
...OTHER STATIONS IN TEXAS...

CITY           SKY/WX    TMP DP  RH WIND       PRES   REMARKS
ABILENE        CLEAR     50  47  89 SE6       30.13F
AMARILLO       CLEAR     47  37  68 S10       30.14S
AUSTIN         MOCLDY    58  52  80 NW6       30.10S
BROWNSVILLE    CLOUDY    69  59  70 N9        30.04S
CORPUS CHRISTI CLOUDY    67  54  63 N12       30.06S
DALLAS FTW     CLEAR     56  46  69 CALM      30.11S
DEL RIO        CLEAR     56  53  90 E6        30.09F
EL PASO        CLEAR     61  31  32 E9        30.10S
HOUSTON INT    MOCLDY    61  55  81 N10       30.04S
LUBBOCK        CLEAR     49  31  49 E6        30.15S
SAN ANGELO     CLEAR     48  44  86 CALM      30.13S
SAN ANTONIO    CLOUDY    59  50  72 N10       30.10F
WACO           PTCLDY    53  50  89 N6        30.12S
WICHITA FALLS  NOT AVBL
$$
...OTHER LOCATIONS IN NEW MEXICO...

CITY           SKY/WX    TMP DP  RH WIND       PRES   REMARKS
ALAMAGORDO     CLEAR     54  25  32 CALM      30.13S
ALBUQUERQUE    MOCLDY    55  36  48 SW9       30.20R
CANNON AFB     CLEAR     46  35  64 SE5       30.15S
CLOVIS         CLEAR     45  34  65 S3        30.16S
HOLLOMAN AFB   CLEAR     55  28  34 S9        30.11S
ROSWELL        CLEAR     52  31  44 W5        30.13F
RUIDOSO          N/A     43  32  65 W5        30.25F
SANTA FE       CLOUDY    48  29  47 CALM      30.18F
TRUTH OR CONSE PTCLDY    55  29  36 E3        30.13S
TUCUMCARI      PTCLDY    47  38  71 SW7       30.12F
$$

USA.gov is the U.S. government's official web portal to all federal, state and local government web resources and services.